Location: Bauerbach
(50.4985°N, 10.3912°E)
Time: 14:46:48
(UTC+00:00)

Cosmos 1805 Rocket - Visible Passes

Search period start: 11 April 2026 00:00
Search period end: 21 April 2026 00:00
Orbit: 600 x 621 km, 82.5° (Epoch: 11 April)

Date Brightness Start Highest point End Pass type
(mag) Time Alt. Az. Time Alt. Az. Time Alt. Az.
11 Apr 7.3 03:05:49 10° NE 03:07:30 12° ENE 03:09:10 10° E visible
11 Apr 6.2 18:54:38 10° SW 18:58:21 26° WNW 19:02:05 10° N visible
12 Apr 6.8 03:19:27 10° NNE 03:22:30 18° ENE 03:25:33 10° ESE visible
12 Apr 6.9 19:10:19 10° WSW 19:13:16 17° WNW 19:16:15 10° NNW visible
13 Apr 6.1 03:33:38 10° N 03:37:25 27° ENE 03:41:11 10° SE visible
13 Apr 7.4 19:26:48 10° WNW 19:28:17 11° WNW 19:29:47 10° NW visible
14 Apr 5.1 03:48:02 10° N 03:52:16 42° ENE 03:56:27 10° SE visible
15 Apr 7.5 02:28:20 10° ENE 02:28:25 10° ENE 02:28:29 10° ENE visible
16 Apr 6.8 02:40:48 10° NNE 02:43:27 15° ENE 02:46:05 10° E visible
17 Apr 6.3 02:54:50 10° NNE 02:58:24 23° ENE 03:01:56 10° ESE visible
18 Apr 5.4 03:09:11 10° N 03:13:16 35° ENE 03:17:18 10° SE visible
19 Apr 4.4 03:23:41 10° N 03:28:03 57° ENE 03:32:21 10° SSE visible
20 Apr 6.8 02:02:15 10° NNE 02:04:22 13° ENE 02:06:29 10° E visible
